Weather Service Report


423 
ASUS41 KCTP 262210
RWRCTP

REGIONAL WEATHER ROUNDUP
NATIONAL WEATHER SERVICE STATE COLLEGE PA
600 PM EDT THU MAY 26 2016

Note: "fair" indicates few or no clouds below 12,000 feet with no 
significant weather and/or obstructions to visibility.

* = STATION THAT DOES NOT REPORT PRECIPITATION /E.G. RAIN...SNOW...ETC/
    THUNDER OR FOG.

PAZ002>004-007>009-013>016-020>023-029>032-262300-
WESTERN PENNSYLVANIA
  
CITY           SKY/WX    TMP DP  RH WIND       PRES   REMARKS
ERIE           MOSUNNY   79  63  57 CALM      29.96F                  
MEADVILLE      MOSUNNY   78  62  57 S10G17    30.00F                  
FRANKLIN*      MOSUNNY   79  61  53 SW9       30.03F                  
NEW CASTLE     MOCLDY    81  64  56 VRB7      30.01F                  
BEAVER COUNTY  MOSUNNY   79  63  57 S7        30.02F                  
BUTLER*        MOSUNNY   79  63  57 SW8G17    30.05S                  
PITTSBURGH INT PTSUNNY   80  60  50 SW13      30.02F                  
PITTSBURGH     CLOUDY    79  60  52 S16       30.02F                  
INDIANA*       SUNNY     81  64  57 SW9       30.07F                  
LATROBE        PTSUNNY   79  64  61 S7        30.04F                  
WASHINGTON CO* SUNNY     79  63  57 SW9       30.04F                  
$$

PAZ004>006-010>012-017>019-024>028-033>037-041-042-045-046-049>053-262300-
CENTRAL PENNSYLVANIA
  
CITY           SKY/WX    TMP DP  RH WIND       PRES   REMARKS
BRADFORD       PTSUNNY   79  58  48 MISG      30.04F                  
DUBOIS         MOSUNNY   77  61  57 SW10      30.04F                  
CLEARFIELD     SUNNY     80  58  46 SW10      30.04F                  
JOHNSTOWN      MOSUNNY   75  57  53 S6        30.09F                  
ALTOONA        CLOUDY    79  61  53 SW6       30.06F                  
STATE COLLEGE  CLOUDY    77  63  61 S8G17     30.05F                  
WILLIAMSPORT   CLOUDY    85  59  41 VRB6      29.99F                  
SELINSGROVE    CLOUDY    85  60  42 SE5       30.01F                  
FT INDIANTOWN  CLOUDY    84  61  46 SW3       30.01F                  
CAPITAL CITY   CLOUDY    84  60  44 S5        30.00F                  
HARRISBURG     CLOUDY    83  59  44 SW3       29.99F                  
YORK           CLOUDY    83  61  47 CALM      30.01F                  
$$

PAZ038>040-043-044-047-048-054-055-060>062-067>071-262300-
EASTERN PENNSYLVANIA
  
CITY           SKY/WX    TMP DP  RH WIND       PRES   REMARKS
SCRANTON       PTSUNNY   85  56  37 W10       30.03F                  
MOUNT POCONO   MOSUNNY   72  50  45 S8        30.09F                  
ALLENTOWN      MOSUNNY   87  54  32 S10       30.02F                  
QUAKERTOWN*    CLEAR     86  57  37 SW6       30.05S                  
READING        PTSUNNY   85  58  39 S9        30.00F                  
LANCASTER      CLOUDY    82  63  52 SE6       30.01F                  
COATESVILLE    CLEAR     84  59  42 VRB6G14   30.06S                  
POTTSTOWN      MOSUNNY   86  57  37 SW8       30.04F                  
BLUE BELL      MOSUNNY   84  59  42 S5        30.03S                  
DOYLESTOWN     SUNNY     85  51  31 VRB6      30.03F                  
WILLOW GROVE   NOT AVBL                                               
NORTH PHILA    SUNNY     89  58  34 VRB5      30.04F                  
PHILADELPHIA   MOSUNNY   88  55  32 SW9       30.03F                  
$$
  

Return to Home page


Western Regional Climate Center, wrcc@dri.edu